Theta_e
356 352 353 346 348 346 345 346 343 346 342 342 341 340 339 338 338 336 335 348 344 344 347 348 350 354 357 358 356 357 357 355 355 353 352 351 351 352 352 353 352 351 350
362 355 354 349 349 344 344 345 346 345 343 343 341 340 339 339 338 339 335 336 347 345 347 349 349 352 356 359 359 357 355 353 354 353 352 351 350 350 352 352 352 352 351
363 362 354 355 356 357 362 357 354 350 346 344 344 341 341 344 341 342 342 340 338 344 345 347 349 351 354 358 361 359 355 353 353 351 350 350 349 349 350 351 352 352 351
360 363 360 354 355 358 355 352 352 350 349 347 348 345 346 349 347 349 349 348 345 342 345 345 347 351 354 357 360 360 358 354 353 351 350 350 350 350 349 350 351 351 351
357 358 354 352 358 362 356 354 353 353 350 348 347 349 350 349 351 347 352 353 354 350 347 348 348 349 352 356 358 360 359 356 353 352 351 351 351 350 349 350 350 350 350
354 357 354 355 357 355 357 355 353 351 352 349 345 343 349 347 349 350 350 351 352 355 354 351 349 346 348 352 355 358 359 358 355 354 352 351 350 351 350 350 350 350 350
356 359 348 345 351 350 354 358 353 349 344 348 348 345 345 350 351 347 351 348 350 351 352 351 352 348 345 347 350 353 358 358 358 356 352 349 349 350 350 350 350 349 349
355 358 355 348 353 347 355 349 352 344 348 347 341 341 332 335 342 345 348 348 350 348 346 350 350 354 353 348 350 349 354 357 359 357 353 349 348 349 350 350 350 349 346
357 357 355 356 351 322 326 330 339 342 339 342 342 338 329 323 330 339 345 346 350 346 346 349 351 351 355 352 348 350 349 351 356 357 355 350 350 351 351 350 347 346 347
351 353 350 352 347 329 333 326 343 346 346 340 344 342 342 339 326 325 337 343 346 345 348 345 345 347 351 352 353 348 344 345 351 354 354 353 353 353 352 349 347 346 346
340 337 342 347 351 352 349 347 347 349 347 343 341 339 340 339 340 332 327 328 337 339 342 345 344 344 347 352 352 349 340 340 342 346 348 350 352 352 350 350 348 346 350
329 334 333 336 339 341 345 347 348 349 348 347 344 341 337 335 332 333 331 331 332 333 338 341 344 344 346 350 350 343 339 335 335 337 339 343 347 348 349 349 346 347 347
324 333 336 334 331 335 334 339 340 345 346 344 347 341 339 335 336 333 331 328 329 333 335 339 339 339 341 346 348 342 341 334 331 331 333 336 340 342 344 345 346 346 346
322 331 328 327 327 327 328 333 330 331 338 338 344 344 341 339 336 334 334 331 327 330 331 336 338 339 343 344 346 340 346 332 329 328 328 330 333 335 337 339 340 342 343
322 324 323 323 324 324 325 328 324 328 332 334 335 339 341 339 338 335 332 333 328 323 325 331 332 342 342 345 345 347 349 335 330 326 325 326 328 330 332 333 334 335 336
321 320 319 319 320 320 321 325 322 325 327 327 329 331 334 335 337 338 335 332 330 328 325 329 330 338 348 343 343 346 345 335 328 325 325 325 325 326 327 328 329 330 332
318 317 317 316 316 316 318 320 320 320 319 322 326 326 327 333 331 332 335 334 330 328 324 328 329 334 340 342 346 348 345 345 342 325 325 324 322 323 324 325 325 327 327
315 315 314 313 312 311 313 313 313 313 313 314 317 318 321 327 330 332 333 333 332 330 324 324 332 332 336 340 344 347 344 342 344 330 324 322 320 320 321 321 321 322 322
312 311 309 308 308 308 308 309 308 307 309 310 310 312 317 321 324 327 330 331 330 331 332 327 324 330 332 334 337 343 345 345 343 332 322 321 320 318 319 319 318 316 315
309 310 310 309 309 308 308 308 307 308 307 308 309 313 313 313 317 322 325 327 329 328 328 328 324 326 329 333 334 333 337 342 339 341 331 328 321 319 318 318 316 315 312
310 310 309 309 309 307 307 307 308 307 306 305 308 308 309 313 312 311 311 319 326 326 325 321 321 320 325 326 326 330 332 336 342 346 340 334 329 325 323 318 322 317 311
309 309 308 308 306 307 304 303 305 306 305 305 303 306 308 309 309 307 308 310 313 319 321 318 320 318 323 327 327 331 333 333 331 345 341 332 333 330 331 330 322 313 309
311 309 309 308 306 307 302 300 302 304 304 303 304 305 305 306 308 308 308 308 310 309 312 322 319 320 322 329 330 331 332 335 334 342 340 334 333 332 336 332 312 308 307
309 308 306 304 306 307 302 299 300 304 304 304 303 305 304 306 308 308 309 311 314 315 324 321 325 329 331 332 331 332 334 338 340 340 341 326 330 329 336 320 310 307 305
306 304 304 305 307 307 302 298 299 303 303 303 305 307 306 306 303 299 308 309 310 311 315 311 311 309 308 307 312 333 328 332 327 331 333 329 327 324 324 320 313 306 304
305 305 306 309 306 308 303 299 300 306 304 304 307 305 302 303 300 298 304 306 304 307 312 323 318 316 310 320 307 330 330 325 323 324 335 327 322 320 314 317 315 313 310
Wind_Speed
6 7 6 7 7 9 9 8 9 7 10 10 10 10 10 10 9 6 6 11 12 11 11 12 13 13 13 13 15 15 14 14 16 14 15 14 14 14 14 15 12 14 14
6 6 6 7 7 8 8 7 8 8 9 10 11 11 10 9 10 9 8 8 11 13 15 15 15 15 14 13 14 14 14 14 16 14 15 14 14 15 14 16 15 15 16
9 9 8 7 7 7 7 5 7 7 8 9 10 9 9 10 10 11 9 9 10 15 16 17 16 15 15 14 15 15 15 15 15 15 16 14 14 15 15 16 17 16 17
11 8 6 8 8 6 8 8 9 11 11 12 10 10 9 10 11 11 10 9 9 8 8 17 17 16 15 16 15 16 16 15 14 16 15 14 15 15 15 16 16 17 17
14 11 11 7 7 5 9 8 8 9 8 10 10 9 9 9 11 10 11 9 9 9 8 10 16 16 16 16 16 16 17 16 14 15 15 14 14 15 16 16 15 16 17
10 11 9 9 9 8 9 11 10 7 10 9 8 9 9 9 8 9 9 9 11 11 10 9 7 9 19 19 18 18 19 17 15 15 14 14 14 14 15 15 15 15 17
9 12 11 9 8 9 12 12 9 8 5 5 9 9 9 10 10 9 9 9 10 12 12 12 7 8 7 20 19 18 19 18 16 16 13 13 13 13 13 14 14 13 15
10 13 16 10 9 8 10 11 9 7 8 7 8 5 8 7 10 11 9 9 9 8 8 8 8 6 6 6 9 17 18 17 17 15 14 14 13 14 12 13 11 11 11
12 11 13 11 7 7 2 16 14 19 7 11 13 5 7 8 7 6 10 9 7 7 8 7 8 7 7 6 9 9 18 17 17 16 15 15 13 13 12 12 8 10 10
8 7 10 10 6 4 6 14 18 11 9 10 5 9 12 11 7 10 7 10 9 9 10 10 11 11 9 8 10 8 6 15 13 15 15 14 13 13 12 10 9 9 11
5 7 9 10 6 10 10 9 10 9 10 7 8 8 9 8 11 12 11 8 9 8 9 10 12 11 11 9 9 10 12 13 14 13 13 14 14 14 13 10 8 7 12
7 5 6 7 9 10 10 6 11 12 10 11 12 10 11 11 11 9 11 12 14 9 10 9 9 8 8 7 10 11 14 14 16 16 14 13 13 13 13 11 10 10 11
8 8 8 7 8 9 11 11 11 12 11 11 13 13 12 13 12 12 12 11 13 11 11 10 9 9 10 10 12 15 16 14 15 17 16 15 15 14 13 12 11 11 10
9 9 10 11 12 13 11 11 11 11 13 12 16 15 13 13 12 12 13 13 12 13 12 12 9 9 9 10 10 9 7 13 13 14 15 16 15 13 11 12 11 10 8
9 11 13 13 14 15 14 13 12 13 14 14 16 17 15 14 14 14 14 13 12 15 12 11 13 13 10 9 12 12 12 10 12 8 11 13 15 16 13 11 10 11 10
12 13 13 14 14 15 15 14 14 14 15 13 14 18 17 14 16 14 14 13 13 13 14 10 10 8 7 9 9 8 10 9 11 13 13 14 14 13 14 13 10 10 9
14 15 16 16 17 17 15 14 14 15 17 17 17 19 19 19 15 15 14 14 15 14 14 9 10 9 11 11 8 7 9 11 10 16 17 15 17 17 16 15 13 10 8
13 14 15 15 16 17 14 15 15 15 16 19 18 19 20 15 20 17 15 19 14 12 13 16 11 9 10 13 12 10 8 9 9 14 15 14 12 12 14 14 14 11 10
14 15 15 15 15 15 15 17 15 15 16 17 17 20 20 20 19 15 16 16 17 13 12 11 8 8 9 10 12 10 10 11 10 8 11 12 12 11 8 10 13 12 12
15 15 14 15 14 18 17 17 16 16 19 18 18 19 19 19 20 19 17 19 17 17 14 12 11 10 11 11 11 10 10 9 10 9 9 11 13 11 9 9 10 12 11
15 16 18 17 16 14 13 15 15 17 17 17 19 19 19 20 25 23 13 15 18 16 15 14 11 9 12 10 13 9 11 9 9 7 7 7 8 7 6 8 9 12 11
14 14 17 17 14 14 13 14 15 16 17 17 17 19 19 25 23 26 26 24 15 16 18 13 12 13 11 10 11 9 10 9 8 7 9 8 9 9 10 10 14 14 13
16 16 15 18 16 20 18 15 14 14 16 17 18 18 18 16 21 17 19 18 21 21 21 14 15 13 8 10 13 11 12 12 11 8 11 9 10 10 10 9 20 18 13
15 13 15 16 19 16 18 14 15 15 16 18 19 21 18 20 21 21 18 16 16 15 18 15 16 14 12 12 11 10 12 13 11 9 13 6 6 3 5 7 12 15 12
12 14 14 18 18 17 15 10 12 14 15 17 18 20 19 19 23 19 20 20 18 17 17 21 16 13 14 17 13 9 10 11 7 6 9 5 5 4 4 7 6 8 10
13 13 16 16 18 19 20 17 16 12 14 13 15 16 20 21 22 19 17 19 15 16 17 15 8 13 15 14 14 14 10 10 7 3 5 5 5 4 4 3 6 5 6
Wind_Direction
217 213 228 239 219 212 209 223 240 218 220 240 247 242 246 251 265 274 271 161 182 201 224 239 248 252 248 244 243 232 230 232 236 237 244 244 244 248 250 252 244 241 238
233 210 235 216 248 247 243 233 218 238 226 246 234 232 244 260 262 269 267 263 198 207 212 222 231 242 249 244 237 231 222 225 236 234 240 239 241 243 245 249 249 241 237
228 218 222 218 252 240 234 262 285 269 262 265 254 252 244 238 244 244 248 257 266 213 216 216 219 227 236 240 232 229 226 220 229 233 236 234 237 239 243 241 246 244 238
232 235 237 234 229 260 265 235 220 229 235 232 232 240 227 234 235 238 243 247 254 271 236 218 218 217 224 231 232 225 230 226 222 231 233 230 235 237 243 244 246 249 241
228 232 228 235 216 266 274 254 246 251 253 251 252 236 235 248 265 250 239 252 263 261 263 267 217 216 217 223 227 225 231 234 222 227 231 223 230 230 238 244 247 250 251
225 225 236 227 200 203 237 247 262 270 270 258 252 255 224 244 250 248 249 249 248 245 240 246 252 237 217 219 219 219 224 234 232 229 232 222 223 225 233 243 248 251 253
239 227 237 238 238 239 225 237 244 234 261 287 285 257 257 238 244 248 241 238 232 237 236 236 226 234 245 221 217 213 217 227 232 233 230 224 227 223 230 238 243 250 260
234 235 242 240 248 264 267 263 247 255 253 250 243 250 260 246 219 224 226 236 231 235 236 235 246 266 231 271 232 207 214 222 227 232 227 225 228 224 226 240 245 246 267
243 236 247 243 243 109 143 324 255 236 214 231 216 216 259 250 278 228 222 226 237 250 260 264 245 249 240 245 269 229 206 216 216 219 227 224 226 225 223 234 247 262 274
291 265 233 250 211 195 233 208 246 233 227 235 205 228 241 280 283 282 224 221 218 243 239 258 270 271 241 215 213 253 208 213 221 219 222 225 222 218 213 222 239 260 274
271 305 324 322 238 208 225 250 243 235 245 238 257 258 234 231 245 256 271 260 236 245 249 240 254 250 241 225 225 207 213 209 205 205 218 226 216 206 210 216 230 246 254
310 291 298 317 320 317 303 258 244 248 241 239 243 240 246 244 233 229 256 265 278 282 278 265 261 255 256 240 246 230 221 205 206 185 205 215 208 206 211 203 227 238 238
314 327 348 317 302 308 299 302 299 293 267 249 247 253 256 253 249 246 250 251 270 264 242 241 243 258 246 249 237 226 218 218 201 195 187 197 201 202 204 204 196 227 227
304 313 312 304 297 294 291 289 279 276 275 272 258 253 258 261 254 259 255 243 244 241 256 262 243 247 243 247 250 225 229 211 215 196 188 187 201 193 196 204 191 203 215
313 314 315 302 297 293 287 286 276 273 272 268 266 263 253 250 256 257 258 268 242 253 247 236 241 225 234 233 226 226 230 203 209 204 206 189 189 188 179 208 197 199 192
308 307 299 297 297 293 291 285 279 273 268 264 264 262 264 256 256 252 253 256 259 263 260 252 261 272 234 223 235 236 259 259 208 187 195 201 199 189 173 194 194 199 183
307 305 305 306 300 294 290 290 292 291 283 285 280 276 279 277 261 257 256 242 242 251 260 254 262 282 291 283 271 239 236 240 234 195 198 207 198 182 181 182 185 189 174
304 301 303 302 301 302 304 305 304 295 296 293 281 279 288 278 267 255 257 267 255 240 244 254 243 251 270 280 262 242 249 251 237 190 201 195 202 188 182 179 172 179 159
312 310 302 294 290 289 292 289 288 288 286 283 282 288 289 280 277 275 254 256 259 251 249 248 243 239 247 253 262 252 238 236 256 170 193 199 195 180 178 202 165 156 160
297 299 295 295 293 289 283 278 281 280 283 278 279 279 269 278 284 287 272 262 254 254 261 244 247 250 240 242 251 239 239 230 233 218 192 189 173 163 176 195 169 160 161
305 302 300 297 292 286 274 278 277 278 277 278 281 275 277 274 279 281 287 294 272 248 241 253 224 223 240 238 246 249 240 233 233 206 201 186 165 153 174 179 194 172 166
297 293 299 293 301 286 285 270 261 277 273 274 277 276 276 273 268 266 267 270 259 272 247 234 254 243 247 246 262 239 246 231 227 186 204 189 175 176 174 188 190 159 172
304 305 301 307 297 293 283 253 244 269 269 267 270 274 273 268 268 263 274 259 267 252 239 248 238 246 253 242 241 250 239 232 227 201 189 184 178 187 189 178 151 150 165
309 309 309 295 290 288 276 259 248 266 268 266 266 267 261 264 264 265 265 268 265 290 252 234 240 234 238 255 263 257 254 245 235 212 192 165 181 170 118 96 124 137 156
317 298 292 291 290 294 294 266 257 274 263 263 262 262 259 260 262 264 263 258 261 264 282 240 222 232 227 244 258 253 250 230 213 203 200 151 157 113 89 110 105 123 142
302 301 297 285 290 288 285 268 255 272 263 261 264 262 256 248 258 256 255 261 248 249 264 217 222 238 237 235 220 237 244 236 193 188 199 129 146 136 123 92 120 166 137